WX2P-13 Weather Reports


time (UTC)temp
C
wind
direction
speed
KPH
gust
KPH
rain 1hr
cm
rain 24hr
cm
rain mn
cm
humidity
%
barometer
mb
20260510173416 30 264 4.8 16.1 0.00 0.00 0.00 75 1016.9
20260510172912 31 230 3.2 9.7 0.00 0.00 0.00 74 1016.9
20260510172409 31 304 3.2 8.0 0.00 0.00 0.00 73 1017.1
20260510171904 30 147 1.6 4.8 0.00 0.00 0.00 76 1017.1
20260510171402 31 7 6.4 12.9 0.00 0.00 0.00 74 1017.1
20260510170859 30 156 1.6 9.7 0.00 0.00 0.00 73 1017.1
20260510170355 31 247 4.8 11.3 0.00 0.00 0.00 73 1016.9
20260510165850 32 329 4.8 4.8 0.00 0.00 0.00 69 1017.1
20260510165347 31 282 4.8 8.0 0.00 0.00 0.00 73 1017.2
20260510164844 31 198 1.6 3.2 0.00 0.00 0.00 73 1017.2
20260510164341 31 315 4.8 8.0 0.00 0.00 0.00 71 1017.3
20260510163841 31 214 6.4 8.0 0.00 0.00 0.00 72 1017.2
20260510163338 31 286 4.8 8.0 0.00 0.00 0.00 70 1017.1
20260510162832 32 145 4.8 8.0 0.00 0.00 0.00 70 1017.3
20260510162329 31 211 4.8 4.8 0.00 0.00 0.00 69 1017.1
20260510161824 31 219 1.6 12.9 0.00 0.00 0.00 69 1017.1
20260510161315 31 220 3.2 8.0 0.00 0.00 0.00 70 1017.3
20260510160812 31 154 1.6 3.2 0.00 0.00 0.00 69 1017.4
20260510160308 31 253 4.8 8.0 0.00 0.00 0.00 69 1017.2
20260510155803 31 204 1.6 8.0 0.00 0.00 0.00 70 1017.1
20260510155300 31 278 3.2 4.8 0.00 0.00 0.00 71 1017.2
20260510154756 31 236 4.8 11.3 0.00 0.00 0.00 70 1017.4
20260510154252 31 191 1.6 8.0 0.00 0.00 0.00 71 1017.2
20260510153747 31 80 1.6 4.8 0.00 0.00 0.00 72 1017.0
20260510153242 30 231 1.6 4.8 0.00 0.00 0.00 73 1017.3
20260510152734 30 86 0.0 4.8 0.00 0.00 0.00 74 1017.1
20260510152230 31 204 1.6 8.0 0.00 0.00 0.00 72 1017.0
20260510151727 31 247 1.6 4.8 0.00 0.00 0.00 70 1017.1
20260510151226 32 213 1.6 3.2 0.00 0.00 0.00 69 1016.9
20260510150721 31 217 1.6 1.6 0.00 0.00 0.00 72 1017.2
20260510150216 30 338 3.2 9.7 0.00 0.00 0.00 74 1017.0
20260510145713 30 265 1.6 3.2 0.00 0.00 0.00 74 1016.8
20260510145209 30 190 3.2 3.2 0.00 0.00 0.00 74 1016.8
20260510144705 30 239 4.8 4.8 0.00 0.00 0.00 75 1016.7
20260510144203 30 197 1.6 4.8 0.00 0.00 0.00 76 1016.9
20260510143657 30 187 1.6 3.2 0.00 0.00 0.00 76 1016.9
20260510143154 30 180 1.6 3.2 0.00 0.00 0.00 76 1017.0
20260510142650 29 212 1.6 3.2 0.00 0.00 0.00 77 1017.3
20260510142147 29 161 1.6 1.6 0.00 0.00 0.00 78 1016.9
20260510141644 29 192 0.0 3.2 0.00 0.00 0.00 79 1017.0
20260510141142 29 211 1.6 8.0 0.00 0.00 0.00 78 1017.0
20260510140638 29 192 1.6 3.2 0.00 0.00 0.00 79 1016.8
20260510140137 28 173 4.8 4.8 0.00 0.00 0.00 80 1016.7
20260510135633 28 172 0.0 1.6 0.00 0.00 0.00 80 1016.6
20260510135129 29 140 1.6 3.2 0.00 0.00 0.00 79 1016.5
20260510134626 30 216 1.6 3.2 0.00 0.00 0.00 78 1016.8
20260510134124 28 216 3.2 3.2 0.00 0.00 0.00 78 1016.6
20260510133620 28 200 6.4 8.0 0.00 0.00 0.00 78 1016.8
20260510133115 28 127 1.6 4.8 0.00 0.00 0.00 79 1016.5
20260510132612 28 162 0.0 4.8 0.00 0.00 0.00 80 1016.5
20260510132109 28 165 1.6 8.0 0.00 0.00 0.00 81 1016.6
20260510131607 27 160 1.6 3.2 0.00 0.00 0.00 80 1016.7
20260510131104 27 79 1.6 9.7 0.00 0.00 0.00 81 1016.5
20260510130600 27 152 1.6 4.8 0.00 0.00 0.00 81 1016.5
20260510130058 27 192 1.6 9.7 0.00 0.00 0.00 82 1016.4
20260510125554 26 163 1.6 4.8 0.00 0.00 0.00 82 1016.3
20260510125050 26 145 1.6 9.7 0.00 0.00 0.00 83 1016.2
20260510124547 26 171 1.6 3.2 0.00 0.00 0.00 83 1016.4
20260510124044 26 122 1.6 3.2 0.00 0.00 0.00 83 1016.4
20260510123539 26 189 1.6 3.2 0.00 0.00 0.00 83 1016.5
20260510123036 25 162 0.0 1.6 0.00 0.00 0.00 85 1016.2
20260510122531 25 213 4.8 4.8 0.00 0.00 0.00 85 1016.5
20260510122028 25 181 1.6 3.2 0.00 0.00 0.00 87 1016.3
20260510121525 25 161 0.0 3.2 0.00 0.00 0.00 88 1016.2
20260510121022 24 154 1.6 3.2 0.00 0.00 0.00 90 1016.1
20260510120520 23 202 1.6 8.0 0.00 0.00 0.00 90 1015.9
20260510120015 23 165 1.6 3.2 0.00 0.00 0.00 91 1016.2
20260510115512 23 191 1.6 3.2 0.00 0.00 0.00 92 1015.9
20260510115009 23 130 0.0 1.6 0.00 0.00 0.00 92 1015.9
20260510114505 23 163 3.2 3.2 0.00 0.00 0.00 93 1015.8
20260510114001 23 160 0.0 3.2 0.00 0.00 0.00 93 1015.5
20260510113456 23 161 0.0 1.6 0.00 0.00 0.00 93 1015.5
20260510112954 23 165 0.0 1.6 0.00 0.00 0.00 93 1015.5
20260510112451 23 167 0.0 1.6 0.00 0.00 0.00 93 1015.4
20260510111947 22 165 0.0 1.6 0.00 0.00 0.00 93 1015.5
20260510111443 22 192 0.0 1.6 0.00 0.00 0.00 94 1015.2
20260510110940 22 133 0.0 0.0 0.00 0.00 0.00 94 1015.0
20260510110436 22 164 0.0 3.2 0.00 0.00 0.00 94 1015.0
20260510105932 22 163 0.0 0.0 0.00 0.00 0.00 94 1015.0
20260510105427 22 189 0.0 1.6 0.00 0.00 0.00 94 1014.7
20260510104922 22 169 0.0 0.0 0.00 0.00 0.00 94 1014.5
20260510104420 22 167 0.0 1.6 0.00 0.00 0.00 94 1014.4
20260510103916 22 159 0.0 0.0 0.00 0.00 0.00 94 1014.7
20260510103414 22 194 1.6 3.2 0.00 0.00 0.00 94 1014.8
20260510102908 22 175 0.0 0.0 0.00 0.00 0.00 94 1014.5
20260510102404 22 172 0.0 0.0 0.00 0.00 0.00 94 1014.5
20260510101901 22 167 0.0 0.0 0.00 0.00 0.00 94 1014.3
20260510101359 22 158 0.0 0.0 0.00 0.00 0.00 94 1014.4
20260510100856 22 157 0.0 0.0 0.00 0.00 0.00 94 1014.3
20260510100353 22 163 0.0 3.2 0.00 0.00 0.00 94 1014.2
20260510095850 22 187 0.0 1.6 0.00 0.00 0.00 94 1014.3
20260510095344 22 172 0.0 1.6 0.00 0.00 0.00 94 1014.1
20260510094839 22 142 0.0 3.2 0.00 0.00 0.00 94 1014.1
20260510094334 22 226 3.2 3.2 0.00 0.00 0.00 94 1014.0
20260510093831 22 172 0.0 1.6 0.00 0.00 0.00 94 1014.1
20260510093326 22 160 0.0 0.0 0.00 0.00 0.00 94 1013.9
20260510092823 22 157 0.0 1.6 0.00 0.00 0.00 93 1013.7
20260510092319 22 169 0.0 0.0 0.00 0.00 0.00 93 1014.1
20260510091815 22 167 0.0 3.2 0.00 0.00 0.00 93 1013.8
20260510091312 22 170 1.6 3.2 0.00 0.00 0.00 93 1014.0
20260510090809 22 172 0.0 1.6 0.00 0.00 0.00 93 1013.7
20260510090306 22 166 0.0 3.2 0.00 0.00 0.00 93 1013.8
20260510085801 22 168 0.0 1.6 0.00 0.00 0.00 93 1013.5
20260510085300 22 166 0.0 0.0 0.00 0.00 0.00 93 1013.7
20260510084756 22 153 0.0 1.6 0.00 0.00 0.00 93 1013.7
20260510084254 22 172 1.6 1.6 0.00 0.00 0.00 93 1013.7
20260510083750 22 162 0.0 1.6 0.00 0.00 0.00 93 1013.5
20260510083248 22 157 0.0 1.6 0.00 0.00 0.00 93 1013.1
20260510082743 22 166 0.0 0.0 0.00 0.00 0.00 93 1013.5
20260510082240 22 174 0.0 1.6 0.00 0.00 0.00 93 1013.4
20260510081739 22 170 1.6 3.2 0.00 0.00 0.00 93 1013.5
20260510081235 22 177 0.0 1.6 0.00 0.00 0.00 93 1013.2
20260510080730 22 161 0.0 0.0 0.00 0.00 0.00 93 1013.1
20260510080226 22 158 0.0 0.0 0.00 0.00 0.00 93 1013.2
20260510075723 22 167 0.0 0.0 0.00 0.00 0.00 93 1013.1
20260510075221 22 155 0.0 0.0 0.00 0.00 0.00 93 1013.2
20260510074718 22 131 0.0 1.6 0.00 0.00 0.00 93 1013.3
20260510074214 22 168 0.0 3.2 0.00 0.00 0.00 93 1013.2
20260510073711 22 184 1.6 3.2 0.00 0.00 0.00 94 1013.2
20260510073206 22 158 0.0 3.2 0.00 0.00 0.00 94 1013.7
20260510072702 22 156 0.0 1.6 0.00 0.00 0.00 93 1013.6
20260510072159 22 164 1.6 1.6 0.00 0.00 0.00 93 1013.4
20260510071656 22 145 0.0 1.6 0.00 0.00 0.00 93 1013.4
20260510071153 22 190 0.0 3.2 0.00 0.00 0.00 93 1013.5
20260510070650 22 150 0.0 0.0 0.00 0.00 0.00 93 1013.6
20260510070148 22 188 3.2 4.8 0.00 0.00 0.00 93 1013.7
20260510065643 22 158 0.0 1.6 0.00 0.00 0.00 93 1013.7
20260510065139 22 228 1.6 1.6 0.00 0.00 0.00 93 1013.6
20260510064636 22 182 0.0 1.6 0.00 0.00 0.00 93 1013.9
20260510064132 22 179 0.0 3.2 0.00 0.00 0.00 93 1014.0
20260510063630 22 171 0.0 1.6 0.00 0.00 0.00 93 1014.0
20260510063126 22 174 1.6 4.8 0.00 0.00 0.00 93 1014.0
20260510062622 22 163 0.0 0.0 0.00 0.00 0.00 92 1013.9
20260510062118 22 164 0.0 0.0 0.00 0.00 0.00 92 1013.9
20260510061614 22 164 0.0 1.6 0.00 0.00 0.00 92 1014.0
20260510061112 22 193 0.0 1.6 0.00 0.00 0.00 92 1014.1
20260510060608 22 158 0.0 0.0 0.00 0.00 0.00 92 1014.3
20260510060105 22 153 0.0 0.0 0.00 0.00 0.00 92 1014.5
20260510055601 22 162 0.0 0.0 0.00 0.00 0.00 92 1014.6
20260510055059 22 167 1.6 1.6 0.00 0.00 0.00 92 1014.5
20260510054555 22 161 0.0 0.0 0.00 0.00 0.00 92 1014.7
20260510054049 21 168 0.0 0.0 0.00 0.00 0.00 92 1014.7
20260510053543 22 159 0.0 1.6 0.00 0.00 0.00 92 1014.9
20260510053041 21 162 0.0 0.0 0.00 0.00 0.00 92 1014.8
20260510052537 21 157 0.0 0.0 0.00 0.00 0.00 92 1014.7
20260510052033 21 161 0.0 0.0 0.00 0.00 0.00 92 1014.9
20260510051529 22 161 0.0 0.0 0.00 0.00 0.00 92 1015.1
20260510051025 22 159 0.0 0.0 0.00 0.00 0.00 91 1015.1
20260510050523 22 163 0.0 0.0 0.00 0.00 0.00 91 1015.1
20260510050020 22 169 0.0 0.0 0.00 0.00 0.00 91 1015.1
20260510045517 22 175 0.0 1.6 0.00 0.00 0.00 91 1015.1
20260510045013 22 166 0.0 0.0 0.00 0.00 0.00 91 1015.4
20260510044510 22 169 0.0 0.0 0.00 0.00 0.00 90 1015.1
20260510044008 22 161 0.0 0.0 0.00 0.00 0.00 90 1015.3
20260510043508 22 172 0.0 0.0 0.00 0.00 0.00 90 1015.2
20260510043004 22 168 0.0 0.0 0.00 0.00 0.00 90 1015.3
20260510042457 22 161 0.0 0.0 0.00 0.00 0.00 90 1015.3
20260510041947 22 168 0.0 0.0 0.00 0.00 0.00 90 1015.5
20260510041444 22 158 0.0 0.0 0.00 0.00 0.00 90 1015.5
20260510040943 22 167 0.0 0.0 0.00 0.00 0.00 89 1015.5
20260510040439 22 160 0.0 0.0 0.00 0.00 0.00 89 1015.6
20260510035934 22 158 0.0 0.0 0.00 0.00 0.00 88 1015.5
20260510035430 23 156 0.0 0.0 0.00 0.00 0.00 88 1015.5
20260510034925 23 153 0.0 0.0 0.00 0.00 0.00 88 1015.6
20260510034424 23 157 0.0 0.0 0.00 0.00 0.00 88 1015.4
20260510033920 23 158 0.0 0.0 0.00 0.00 0.00 88 1015.5
20260510033416 23 157 0.0 0.0 0.00 0.00 0.00 88 1015.7
20260510032913 23 153 0.0 0.0 0.00 0.00 0.00 88 1015.4
20260510032410 23 159 0.0 0.0 0.00 0.00 0.00 88 1015.4
20260510031905 23 158 0.0 0.0 0.00 0.00 0.00 88 1015.5
20260510031400 23 161 0.0 0.0 0.00 0.00 0.00 88 1015.7
20260510030855 23 167 0.0 0.0 0.00 0.00 0.00 88 1015.3
20260510030352 23 153 0.0 0.0 0.00 0.00 0.00 88 1015.5
20260510025850 23 148 0.0 0.0 0.00 0.00 0.00 88 1015.1
20260510025347 23 143 0.0 0.0 0.00 0.00 0.00 88 1015.4
20260510024844 23 148 0.0 0.0 0.00 0.00 0.00 88 1015.3
20260510024340 23 153 0.0 0.0 0.00 0.00 0.00 87 1015.3
20260510023836 23 157 0.0 0.0 0.00 0.00 0.00 87 1015.1
20260510023333 23 152 0.0 0.0 0.00 0.00 0.00 87 1015.1
20260510022831 23 161 0.0 0.0 0.00 0.00 0.00 87 1015.0
20260510022329 23 167 0.0 0.0 0.00 0.00 0.00 87 1015.1
20260510021828 23 166 0.0 0.0 0.00 0.00 0.00 86 1014.9
20260510021327 23 153 0.0 0.0 0.00 0.00 0.00 86 1014.9
20260510020823 23 154 0.0 0.0 0.00 0.00 0.00 86 1015.0
20260510020317 23 163 0.0 0.0 0.00 0.00 0.00 86 1014.9
20260510015814 23 143 0.0 0.0 0.00 0.00 0.00 86 1014.6
20260510015310 23 153 0.0 0.0 0.00 0.00 0.00 86 1014.4
20260510014805 23 148 0.0 0.0 0.00 0.00 0.00 85 1014.3
20260510014302 23 135 0.0 0.0 0.00 0.00 0.00 85 1014.3
20260510013758 23 151 0.0 0.0 0.00 0.00 0.00 85 1014.3
20260510013254 23 152 0.0 0.0 0.00 0.00 0.00 85 1014.3
20260510012749 24 158 0.0 0.0 0.00 0.00 0.00 85 1014.3
20260510012244 24 152 0.0 0.0 0.00 0.00 0.00 85 1014.3
20260510011744 24 158 0.0 0.0 0.00 0.00 0.00 85 1014.2
20260510011239 24 151 0.0 0.0 0.00 0.00 0.00 85 1014.2
20260510010737 24 159 0.0 0.0 0.00 0.00 0.00 85 1014.3
20260510010233 24 159 0.0 0.0 0.00 0.00 0.00 84 1014.2
20260510005730 25 176 0.0 0.0 0.00 0.00 0.00 84 1014.2
20260510005227 25 157 0.0 0.0 0.00 0.00 0.00 84 1014.1
20260510004724 25 158 0.0 0.0 0.00 0.00 0.00 83 1014.1
20260510004222 25 168 0.0 0.0 0.00 0.00 0.00 83 1013.9
20260510003720 25 149 0.0 0.0 0.00 0.00 0.00 83 1013.9
20260510003215 25 161 0.0 1.6 0.00 0.00 0.00 83 1013.8
20260510002714 25 134 0.0 1.6 0.00 0.00 0.00 82 1013.8
20260510002212 25 110 0.0 1.6 0.00 0.00 0.00 82 1013.9
20260510001709 26 165 0.0 0.0 0.00 0.00 0.00 83 1013.8
20260510001207 26 154 0.0 0.0 0.00 0.00 0.00 82 1013.6
20260510000702 26 230 1.6 3.2 0.00 0.00 0.00 82 1013.7
20260510000200 26 157 0.0 0.0 0.00 0.00 0.00 82 1014.0
20260509235656 26 185 0.0 1.6 0.00 0.00 0.00 82 1013.7
20260509235153 26 157 0.0 0.0 0.00 0.00 0.00 82 1013.5
20260509234649 26 187 0.0 1.6 0.00 0.00 0.00 82 1013.5
20260509234146 26 165 0.0 0.0 0.00 0.00 0.00 82 1013.2
20260509233644 26 176 0.0 0.0 0.00 0.00 0.00 82 1013.1
20260509233141 26 181 0.0 1.6 0.00 0.00 0.00 82 1013.3
20260509232637 26 299 1.6 1.6 0.00 0.00 0.00 82 1013.1
20260509232134 26 218 1.6 1.6 0.00 0.00 0.00 81 1013.3
20260509231631 26 159 0.0 1.6 0.00 0.00 0.00 81 1013.4
20260509231129 26 209 1.6 1.6 0.00 0.00 0.00 81 1013.2
20260509230625 26 136 0.0 1.6 0.00 0.00 0.00 81 1013.3
20260509230122 26 140 1.6 1.6 0.00 0.00 0.00 81 1013.4
20260509225618 26 345 1.6 3.2 0.00 0.00 0.00 81 1013.4
20260509225114 26 145 0.0 1.6 0.00 0.00 0.00 82 1013.2
20260509224609 27 346 1.6 4.8 0.00 0.00 0.00 81 1013.4
20260509224107 27 117 1.6 8.0 0.00 0.00 0.00 81 1013.2
20260509223603 27 301 4.8 8.0 0.00 0.00 0.00 80 1013.6
20260509223101 27 240 4.8 4.8 0.00 0.00 0.00 80 1013.2
20260509222557 27 340 3.2 3.2 0.00 0.00 0.00 79 1013.4
20260509222053 27 270 3.2 4.8 0.00 0.00 0.00 79 1013.2
20260509221549 27 166 1.6 8.0 0.00 0.00 0.00 77 1013.5
20260509221045 27 174 0.0 4.8 0.00 0.00 0.00 77 1013.2
20260509220541 27 249 1.6 4.8 0.00 0.00 0.00 76 1013.0
20260509220037 27 248 3.2 4.8 0.00 0.00 0.00 76 1013.2
20260509215532 27 227 3.2 4.8 0.00 0.00 0.00 75 1013.1
20260509215030 28 197 1.6 4.8 0.00 0.00 0.00 75 1013.1
20260509214527 28 272 3.2 4.8 0.00 0.00 0.00 74 1012.9
20260509214024 28 332 1.6 3.2 0.00 0.00 0.00 75 1013.0
20260509213520 28 247 4.8 8.0 0.00 0.00 0.00 74 1012.8
20260509213017 28 330 6.4 9.7 0.00 0.00 0.00 72 1012.8
20260509212514 28 217 6.4 9.7 0.00 0.00 0.00 72 1012.7
20260509212011 29 252 4.8 4.8 0.00 0.00 0.00 71 1012.4
20260509211506 30 264 3.2 9.7 0.00 0.00 0.00 69 1012.5
20260509211003 30 287 4.8 9.7 0.00 0.00 0.00 69 1012.5
20260509210500 29 215 1.6 4.8 0.00 0.00 0.00 70 1012.6
20260509205956 29 249 4.8 12.9 0.00 0.00 0.00 70 1012.3
20260509205451 30 302 4.8 4.8 0.00 0.00 0.00 69 1012.3
20260509204946 30 231 3.2 9.7 0.00 0.00 0.00 65 1012.4
20260509204443 30 219 3.2 8.0 0.00 0.00 0.00 66 1012.2
20260509203940 30 227 3.2 8.0 0.00 0.00 0.00 66 1012.4
20260509203435 30 232 3.2 9.7 0.00 0.00 0.00 66 1012.4
20260509202934 30 276 4.8 9.7 0.00 0.00 0.00 64 1012.5
20260509202429 30 231 3.2 4.8 0.00 0.00 0.00 63 1012.5
20260509201925 30 307 4.8 8.0 0.00 0.00 0.00 63 1012.2
20260509201420 30 25 4.8 9.7 0.00 0.00 0.00 64 1012.5
20260509200917 31 230 3.2 4.8 0.00 0.00 0.00 63 1012.3
20260509200417 30 322 4.8 4.8 0.00 0.00 0.00 64 1012.3
20260509195913 30 342 3.2 8.0 0.00 0.00 0.00 66 1012.7
20260509195409 31 248 4.8 4.8 0.00 0.00 0.00 64 1012.6
20260509194903 30 215 1.6 4.8 0.00 0.00 0.00 64 1012.7
20260509194359 30 213 6.4 8.0 0.00 0.00 0.00 66 1012.7
20260509193855 30 166 3.2 9.7 0.00 0.00 0.00 67 1012.6
20260509193350 30 261 3.2 8.0 0.00 0.00 0.00 64 1012.5
20260509192846 30 246 4.8 8.0 0.00 0.00 0.00 66 1012.7
20260509192342 30 22 3.2 8.0 0.00 0.00 0.00 66 1012.9
20260509191838 30 32 6.4 9.7 0.00 0.00 0.00 64 1012.8
20260509191334 31 316 4.8 12.9 0.00 0.00 0.00 62 1012.9
20260509190830 31 257 1.6 9.7 0.00 0.00 0.00 63 1012.9
20260509190327 31 315 3.2 11.3 0.00 0.00 0.00 63 1012.9
20260509185824 31 231 1.6 11.3 0.00 0.00 0.00 63 1013.0
20260509185321 31 203 4.8 8.0 0.00 0.00 0.00 61 1013.2
20260509184818 31 210 1.6 8.0 0.00 0.00 0.00 63 1013.3
20260509184310 31 215 1.6 9.7 0.00 0.00 0.00 65 1013.0
20260509183806 31 159 4.8 8.0 0.00 0.00 0.00 65 1013.2
20260509183301 31 15 4.8 9.7 0.00 0.00 0.00 66 1013.0
20260509182757 31 267 6.4 9.7 0.00 0.00 0.00 66 1013.4
20260509182255 31 195 4.8 4.8 0.00 0.00 0.00 64 1013.3
20260509181751 31 165 0.0 4.8 0.00 0.00 0.00 63 1013.3
20260509181249 31 240 1.6 4.8 0.00 0.00 0.00 62 1013.6
20260509180746 31 237 4.8 11.3 0.00 0.00 0.00 63 1013.5
20260509180242 32 253 4.8 9.7 0.00 0.00 0.00 63 1013.4
20260509175739 32 288 3.2 4.8 0.00 0.00 0.00 61 1013.5
20260509175235 32 253 1.6 8.0 0.00 0.00 0.00 64 1013.8
20260509174732 31 193 3.2 9.7 0.00 0.00 0.00 66 1013.6
20260509174227 32 193 4.8 8.0 0.00 0.00 0.00 63 1013.8
20260509173723 32 202 4.8 4.8 0.00 0.00 0.00 64 1014.0